Location: Unspecified
(0.0000°N, 0.0000°E)
Time: 15:51:06
(UTC+02:00)

Daily predictions for brighter satellites

Satellite Brightness Start Highest point End
(mag) Time Altitude Azimuth Time Altitude Azimuth Time Altitude Azimuth
BLOCK DM-SL R/B 3.7 20:10:27 10° W 20:15:11 85° S 20:24:11 10° E
CZ-3C R/B 3.4 20:20:42 10° NW 20:27:13 17° NNW 20:30:16 10° NNE
Maqsat-B 3.4 20:23:43 10° W 20:28:01 40° N 20:31:25 10° ENE
Orbus 7S 4.0 20:30:06 10° NNW 20:32:35 32° NE 20:36:49 10° ESE
Cosmos 1680 Rocket 4.1 20:31:49 10° NNW 20:36:57 63° WSW 20:42:05 10° S
Cosmos 372 Rocket 3.9 20:33:20 10° S 20:38:26 84° ESE 20:43:32 10° NNE
USA 215 3.3 20:33:15 10° NE 20:39:46 88° NW 20:46:20 10° SW
Meteor 1-24 Rocket 4.4 20:34:56 10° NNE 20:40:10 35° E 20:45:32 10° SSE
Cosmos 1758 3.2 20:47:55 10° S 20:51:53 77° E 20:55:50 10° N
COSMOS 2406 3.2 20:46:59 10° N 20:52:37 67° ENE 20:58:14 10° SSE
Cosmos 1271 Rocket 3.5 20:49:26 10° SSE 20:52:56 30° E 20:56:26 10° NNE
ASTRO E2 4.2 20:49:59 10° W 20:53:37 32° NNW 20:57:14 10° NNE
Cosmos 1707 3.4 20:50:59 10° NNW 20:54:46 57° W 20:58:33 10° S
SL-27 R/B 3.6 20:53:36 10° NNE 20:56:35 24° ENE 20:57:29 22° ESE
Longmarch 3A Rocket 4.0 20:53:50 10° N 20:56:46 22° NE 21:00:16 17° E
ARIANE 44LP R/B 3.6 20:53:24 10° W 20:56:52 80° S 21:07:34 18° E
Cosmos 1953 2.3 20:54:18 10° S 20:58:23 86° E 21:02:26 10° N
Cosmos 2369 Rocket 3.4 20:54:53 10° SSE 20:58:57 20° ESE 20:59:57 19° E
Cosmos 2098 Rocket 4.1 20:53:08 10° S 20:59:12 70° E 21:06:24 10° N
FREGAT/IRIS 2.8 20:57:35 10° SSE 21:00:34 47° E 21:03:31 10° N
FALCON 9 R/B 1.2 20:59:43 10° SW 21:05:36 76° NW 21:07:10 24° NE
Meteor 2-5 Rocket 4.4 21:00:05 10° NNW 21:05:52 62° W 21:11:44 10° S
SL-23 DEB 4.3 21:03:49 10° SSW 21:07:29 56° ESE 21:13:30 10° NE
FENGYUN 3A 4.0 21:03:28 10° SSE 21:08:34 42° ENE 21:13:38 10° N
EPKM 4.4 21:08:52 10° SSW 21:09:27 11° S 21:10:04 10° S
TIMED 4.4 21:05:47 10° S 21:10:09 77° ESE 21:14:30 10° NNE
GPS 2-18 Rocket1 4.3 21:08:07 10° SW 21:11:17 25° SSE 21:11:48 24° SE
Ariane H10 2.7 21:08:40 10° WNW 21:11:33 51° N 21:15:00 24° ENE
Meteor 1-4 Rocket 4.4 21:11:52 10° SSW 21:15:02 31° W 21:18:10 10° NNW
ARIANE 5 DEB (SYLDA) 2.9 21:13:16 10° W 21:16:31 34° S 21:16:40 33° S
In-Cosmos 22 4.2 21:12:22 10° N 21:17:27 50° E 21:22:37 10° SSE
ARIANE 5 DEB (SYLDA) 3.6 21:16:15 10° WSW 21:19:55 54° S 21:23:29 27° ESE
Tiangong 2 1.5 21:19:46 10° SW 21:22:50 57° NW 21:23:19 49° N
ALOS 2.1 21:18:55 10° SSE 21:23:35 72° ENE 21:28:13 10° N
Milstar 3 2.7 21:20:41 10° WSW 21:28:20 89° SSE 21:31:45 31° ENE
Helios 1B rocket 2.4 21:25:34 10° N 21:29:39 82° WNW 21:33:46 10° SSW
CZ-4C R/B 1.7 21:24:54 10° SSW 21:29:54 83° ESE 21:33:16 21° NNE
Cosmos 2016 Rocket 4.2 21:24:15 10° SSE 21:30:13 44° E 21:36:06 10° NNE
ATLAS 3B R/B 4.4 21:30:31 10° SSE 21:32:41 16° SSE 21:32:41 16° SSE
Meteosat 1 Rocket2 4.3 21:35:16 10° SW 21:38:54 29° S 21:38:54 29° S
Palapa 6 Rocket 3.9 21:35:12 10° WNW 21:42:34 90° SSW 21:44:07 55° ESE
Okean 3 Rocket 3.6 21:38:58 10° N 21:43:23 76° W 21:45:33 30° S
Cosmos-2242 4.3 21:42:54 10° SSW 21:46:54 40° W 21:50:53 10° NNW
Cosmos 2100 Rocket 4.2 21:42:29 10° S 21:48:42 69° W 21:54:57 10° N
Cosmos 1470 4.3 21:45:03 10° SSW 21:48:45 37° W 21:52:26 10° NNW
Centaur D-1A AC-35 2.3 21:44:42 10° WNW 21:48:36 64° NW 21:48:36 64° NW
FengYun 1-2 T 4.4 21:45:04 10° S 21:50:34 73° WSW 21:56:06 10° NNW
ARIANE 5 DEB (SYLDA) 4.2 21:34:51 10° W 21:52:41 90° N 21:53:13 74° E
Resurs 01 Rocket 3.1 21:59:33 30° NNW 21:59:33 30° NNW 22:01:48 10° NNW
RESURS DK-1 3.7 21:55:40 10° NNW 21:58:21 36° NW 21:58:21 36° NW
Meteor 1-16 Rocket 4.2 21:57:46 10° S 22:08:14 15° N 22:09:14 10° N
Ariane H10 3.6 21:59:54 10° W 22:10:09 58° NW 22:10:09 58° NW
ARIANE 5 R/B 3.9 22:07:48 10° W 22:11:28 42° W 22:11:28 42° W
Ariane H10+ 4.4 22:06:00 10° W 22:14:10 68° N 22:22:14 44° ENE
Orbus 21S 4.0 22:14:18 10° W 22:18:04 64° NNW 22:18:29 62° N
Ariane 42P Rocket 4.3 21:41:37 10° W 22:21:59 73° S 22:22:41 70° SSE
ARIANE 44L R/B 4.3 22:18:14 10° WSW 22:22:52 70° SSE 22:23:11 69° SSE
ARIANE 44L R/B 4.3 22:18:15 10° WSW 22:22:52 70° SSE 22:23:12 69° SSE
ARIANE 44L R/B 4.3 22:18:15 10° WSW 22:22:52 70° SSE 22:23:11 69° SSE
ARIANE 44L R/B 4.3 22:18:15 10° WSW 22:22:53 70° SSE 22:23:12 69° SSE
Cosmos 2369 Rocket 4.0 22:37:55 10° SW 22:41:56 27° W 22:41:56 27° W
